Regional Weather Roundup
Issued by NWS Sterling, VA

Home | Current Version | Previous Version | Text Only | Print | Product List | Glossary Off
Versions: 1 2 3 4 5 6 7 8 9 10 11 12 13 14 15 16 17 18 19 20 21 22 23 24 25 26 27 28 29 30 31 32 33 34 35 36 37 38 39 40 41 42 43 44 45 46 47 48 49 50

000
ASUS41 KLWX 270410
RWRLWX

REGIONAL WEATHER ROUNDUP
NATIONAL WEATHER SERVICE BALTIMORE MD/WASHINGTON DC
1200 AM EDT WED MAY 27 2015

Note: "FAIR" indicates few or no clouds below 12,000 feet
with no significant weather and/or obstructions to visibility.
 TC=TEMPERATURE CELSIUS

 * =Non NWS site. Station does not report precipitation (e.g. rain,
    snow, etc.), thunder, or fog.

DCZ001-MDZ009-015-VAZ040>042-051-053>054-270500-
WASHINGTON METRO

CITY           SKY/WX    TMP DP  RH WIND       PRES   REMARKS
WASHINGTON NAT MOCLDY    77  67  71 S10       30.16S
DULLES         CLOUDY    76  66  71 S6        30.15S
ANDREWS AFB    PTCLDY    71  66  84 S8        30.16S
FT BELVOIR     MOCLDY    73  67  83 SE6       30.15S
QUANTICO       MOCLDY    75  68  78 S7        30.16S
COLLEGE PARK*  PTCLDY    75  64  69 CALM      30.16S
LEESBURG*      CLOUDY    75  72  88 S9        30.16R
MANASSAS*      MOCLDY    75  68  78 S3        30.15S
GAITHERSBURG*  CLOUDY    75  64  69 SE6       30.20S

$$

MDZ006>007-011-014-270500-
BALTIMORE METRO

CITY           SKY/WX    TMP DP  RH WIND       PRES   REMARKS
BWI AIRPORT    MOCLDY    71  65  81 CALM      30.16S
MD SCIENCE CTR   N/A     73  66  78 MISG      30.17S
MARTIN STATE   PTCLDY    73  70  88 SE10      30.18S
ANNAPOLIS      CLEAR     71  66  84 S14       30.16F
FORT MEADE*    CLEAR     68  63  83 CALM      30.19S

$$

MDZ012-015-019>023-270500-
MARYLAND EASTERN SHORE

CITY           SKY/WX    TMP DP  RH WIND       PRES   REMARKS
OCEAN CITY     CLEAR     68  62  81 SW12      30.24S
SALISBURY      CLEAR     69  64  84 S8        30.22S
BAY BRIDGE AP*   N/A    N/A N/A N/A SE10      30.18S
CAMBRIDGE*     CLEAR     73  68  83 S9        30.19F
EASTON*        PTCLDY    74  70  86 S12       30.22F

$$

MDZ017>025-270500-
SOUTHERN MARYLAND

CITY           SKY/WX    TMP DP  RH WIND       PRES   REMARKS
PATUXENT RIVER CLEAR     73  67  81 S9        30.18S
ST INIGOES     CLEAR     73  68  84 S10       30.18S
LEONARDTOWN*   CLEAR     72  64  78 S6        30.20S

$$

MDZ003>005-270500-
NORTH CENTRAL MARYLAND

CITY           SKY/WX    TMP DP  RH WIND       PRES   REMARKS
FREDERICK*     CLOUDY    75  70  83 S3        30.17S
HAGERSTOWN APT PTCLDY    76  67  73 S9        30.13S
WESTMINSTER*   CLOUDY    73  66  78 SE9       30.17R

$$

MDZ501>502-270500-
WESTERN MARYLAND

CITY           SKY/WX    TMP DP  RH WIND       PRES   REMARKS
OAKLAND*       CLEAR     64 N/A N/A S10G16    30.20S
CUMBERLAND*    CLEAR     70  70 100 CALM      30.16S

$$

VAZ025>031-270500-
SHENANDOAH VALLEY

CITY           SKY/WX    TMP DP  RH WIND       PRES   REMARKS
WINCHESTER*    PTCLDY    70  64  83 S3        30.15S
FRONT ROYAL*   FAIR      70  68  94 S3        30.14S
LURAY*         FAIR      72  72 100 SW7       30.17R
NEW MARKET*    FAIR      67  66  97 CALM      30.15S
STAUNTON*      CLEAR     66  65  95 CALM      30.21S FOG
WAYNESBORO*    FAIR      69  65  90 SW7       30.21S

$$

WVZ021-048>050-054>055-270500-
EASTERN WEST VIRGINIA PANHANDLE

CITY           SKY/WX    TMP DP  RH WIND       PRES   REMARKS
MARTINSBURG    PTCLDY    70  67  90 E3        30.14S
PETERSBURG*    CLEAR     72  62  70 SE6       30.15S

$$

VAZ036>039-050-270500-
CENTRAL FOOTHILLS

CITY           SKY/WX    TMP DP  RH WIND       PRES   REMARKS
CHARLOTTESVILL CLEAR     74  66  76 CALM      30.17S
CULPEPER*      PTCLDY    74  67  77 SW3       30.16S
ORANGE*        CLEAR     73  68  83 S5        30.18S
GORDONSVILLE*  FAIR      68  66  94 CALM      30.17R
WARRENTON*     FAIR      76  69  77 S5        30.15S

$$

VAZ055>057-270500-
NORTH AND CENTRAL PIEDMONT

CITY           SKY/WX    TMP DP  RH WIND       PRES   REMARKS
FREDERICKSBRG* PTCLDY    76  68  77 S8        30.15S
STAFFORD*      PTCLDY    72  65  79 SE5       30.20S

$$

NCZ024-NYZ072-PAZ021-071-VAZ022-071-270500-
OTHER REGIONAL OBSERVATIONS

CITY           SKY/WX    TMP DP  RH WIND       PRES   REMARKS
NEW YORK CITY  MOCLDY    74  61  63 VRB5      30.19S
PHILADELPHIA   PTCLDY    74  63  68 SW9       30.18S
PITTSBURGH     LGT RAIN  70  63  78 SW14G25   30.08R
ROANOKE        PTCLDY    73  63  70 N3        30.22R
RICHMOND       PTCLDY    76  68  76 S10       30.20R
RALEIGH        MOCLDY    75  68  78 S9        30.24R

$$

ANZ530>537-270500-
MARINE OBSERVATIONS

STATION/POSITION TIME  TEMP    WIND        PRES
                       AIR SEA DIR/SP/G
                 (UTC) (F)     (DEG/KT/KT) (MB)
THOMAS PT LIGHT  0400   71 68  170/ 17/ 18 1022.0F
BALT KEY BRIDGE  0300   73     150/ 16/ 18 1020.9R
COVE POINT       0300   70     190/ 17/ 19 1022.7F
LEWISETTA        0300   73 71              1022.0S
SOLOMONS ISLAND  0300      71                N/A
PINEY POINT      0300          170/ 10/ 11   N/A

$$



USA.gov is the U.S. government's official web portal to all federal, state and local government web resources and services.